Regional Weather Roundup
Issued by NWS Upton, NY

Current Version | Previous Version | Text Only | Print | Product List | Glossary On
Versions: 1 2 3 4 5 6 7 8 9 10 11 12 13 14 15 16 17 18 19 20 21 22 23 24 25 26 27 28 29 30 31 32 33 34 35 36 37 38 39 40 41 42 43 44 45 46 47 48 49 50
000
ASUS41 KOKX 192005
RWROKX

REGIONAL WEATHER ROUNDUP
NATIONAL WEATHER SERVICE NEW YORK NY
400 PM EDT TUE AUG 19 2014

NOTE: "FAIR" INDICATES FEW OR NO CLOUDS BELOW 12,000 FEET WITH NO
SIGNIFICANT WEATHER AND/OR OBSTRUCTIONS TO VISIBILITY.

NYZ071-072-176-178-NJZ106-104-192100-
NEW YORK CITY METRO AREA


CITY           SKY/WX    TMP DP  RH WIND       PRES   REMARKS
CENTRAL PARK   MOSUNNY   80  63  55 CALM      29.92S
LAGUARDIA APRT PTSUNNY   79  61  53 VRB5      29.89S
KENNEDY INTL   MOSUNNY   78  65  63 SE12      29.91F
NEWARK/LIBERTY PTSUNNY   80  63  55 SE8       29.89S
BRNX BOT. GARD   N/A     79  57  47 SE2       29.91R
TETERBORO      MOSUNNY   82  59  44 SE9       29.87S
$$

NYZ177-179-078>081-192100-
LONG ISLAND NEW YORK

CITY           SKY/WX    TMP DP  RH WIND       PRES   REMARKS
FARMINGDALE    MOSUNNY   76  65  68 SE13      29.91S
ISLIP          MOSUNNY   75  64  68 SE12      29.90R
SHIRLEY        SUNNY     74  63  68 SE8       29.93R
WESTHAMPTON    SUNNY     74  60  61 S9        29.93S
MONTAUK POINT    N/A     74  55  51 SE5       29.93F
$$

NYZ052-065-067-192100-
HUDSON VALLEY

CITY           SKY/WX    TMP DP  RH WIND       PRES   REMARKS
WHITE PLAINS   MOSUNNY   77  55  46 CALM      29.91R
NEWBURGH       SUNNY     81  54  39 CALM      29.92S
MONTGOMERY     SUNNY     82  53  36 CALM      29.89S
POUGHKEEPSIE   SUNNY     80  53  39 NE6       29.89S
ALBANY         MOSUNNY   78  50  37 CALM      29.90F
$$

NJZ001-105-106-008-010-013-015-019>022-104-192100-
NEW JERSEY

CITY           SKY/WX    TMP DP  RH WIND       PRES   REMARKS
NEWARK/LIBERTY PTSUNNY   80  63  55 SE8       29.89S
TETERBORO      MOSUNNY   82  59  44 SE9       29.87S
CALDWELL       MOSUNNY   82  54  37 SW5       29.89S
MORRISTOWN     PTSUNNY   81  57  44 CALM      29.89S
SOMERVILLE     PTSUNNY   86  57  37 VRB3      29.86S
LINDEN         FAIR      84  64  50 S8        29.91S
SUSSEX         MOSUNNY   85  55  35 CALM      29.89F
ANDOVER          N/A     83  53  35 CALM      29.89F
TRENTON        MOSUNNY   82  58  43 VRB3      29.87S
MILLVILLE      MOSUNNY   83  63  50 SE8       29.87F
ATLANTIC CITY  SUNNY     80  64  58 SE12      29.88F
WRIGHTSTOWN    MOSUNNY   81  65  57 S8        29.86S
TOMS RIVER     MOSUNNY   79  63  57 SE6       29.89F
BELMAR         PTSUNNY   75  64  69 SE10      29.90S
$$

PAZ047>061-062-071-192100-
EASTERN PENNSYLVANIA

CITY           SKY/WX    TMP DP  RH WIND       PRES   REMARKS
PHILADELPHIA   PTSUNNY   85  62  46 SE3       29.86F
ALLENTOWN      MOSUNNY   83  58  42 NW5       29.88F
SCRANTON       PTSUNNY   82  59  45 VRB3      29.88F
$$

CTZ002-004>006-009-010-012-RIZ004-006-007-MAZ004-011-015-192100-
SOUTHERN NEW ENGLAND
 IN CT

CITY           SKY/WX    TMP DP  RH WIND       PRES   REMARKS
BRADLEY INTL   MOSUNNY   80  52  37 S12       29.89F
HARTFORD       SUNNY     80  49  33 VRB6      29.89F
DANBURY        SUNNY     77  54  44 MISG      29.92R
WTRBRY/OXFORD  MOSUNNY   77  54  44 S5        29.94F
BRIDGEPORT     SUNNY     75  59  57 E8        29.91S
MERIDEN        MOSUNNY   80  52  37 S8        29.90S
NEW HAVEN      MOSUNNY   77  55  46 S6        29.92S
CHESTER        FAIR      75  54  46 S6        29.92F
GROTON         SUNNY     72  56  57 S9        29.91S
WILLIMANTIC    SUNNY     78  50  37 NW8       29.91S

 IN RI

CITY           SKY/WX    TMP DP  RH WIND       PRES   REMARKS
PROVIDENCE     MOSUNNY   76  55  48 SE13      29.91S
BLOCK ISLAND   SUNNY     73  50  43 S12       29.93S
WESTERLY       SUNNY     76  51  41 SW8       29.92S

 IN MA

CITY           SKY/WX    TMP DP  RH WIND       PRES   REMARKS
BOSTON         MOSUNNY   71  56  58 E13       29.90F
WORCESTER      SUNNY     73  49  42 W5        29.93S
WESTFIELD      SUNNY     78  54  43 VRB6      29.90S
PROVINCETOWN   SUNNY     70  55  60 MISG      29.92F
NANTUCKET      SUNNY     69  58  67 S8        29.92F
$$

ANZ330-335-338-340-345-350-353-355-192100-
COASTAL MARINE OBSERVATIONS


STATION/POSITION TIME  SKY/WX   TEMP    WIND        PRES    VSBY  WAVE
                                AIR SEA DIR/SP/G                  HT/PER
                 (UTC)          (F)     (DEG/KT/KT) (MB)    (MI)  (FT/S)
NY HARB ENTRANCE NOT AVBL
4S FIRE IS       NOT AVBL
23SW MTP         2000            71 69              1013.0          2/ 9
HUDSON CANYON    2000            74 74   90/  6/  8 1012.4          2/ 9
EXECUTION ROCKS  2000            74 73   70/ 10/ 12   N/A
WESTERN LI SOUND 2000            72      90/  8/ 10   N/A           1
CENTRAL LI SOUND 1900            71 73  110/  6/  6   N/A           1
EASTERN LI SOUND 1900            71 70  160/  8/ 10   N/A
ROBBINS REEF     2000            72     160/ 14/ 16   N/A
$$


>>>>>>>>>>>>>>>>>>>>>>>>>>>> KEY <<<<<<<<<<<<<<<<<<<<<<<<<<<
>                                                          <
>     SKY/WX - SKY CONDITION/PRESENT WEATHER               <
>     TMP    - TEMPERATURE IN FAHRENHEIT                   <
>     DP     - DEWPOINT IN FAHRENHEIT                      <
>     RH     - RELATIVE HUMIDITY IN PERCENT                <
>     WIND   - DIRECTION AND SPEED IN MPH                  <
>     PRES   - MEAN SEA LEVEL PRESSURE IN INCHES OF HG     <
>     WCI    - WIND CHILL INDEX                            <
>     VSB    - VISIBILITY IN MILES                         <
>     HX     - HEAT INDEX                                  <
>     TC     - TEMPERATURE IN CELSIUS                      <
>     VRB    - VARIABLE WIND DIRECTION                     <
>                                                          <
>>>>>>>>>>>>>>>>>>>>>>>>>>>> KEY <<<<<<<<<<<<<<<<<<<<<<<<<<<




USA.gov is the U.S. government's official web portal to all federal, state and local government web resources and services.